Regional Weather Roundup
Issued by NWS Newport/Morehead, NC

Current Version | Previous Version | Text Only | Print | Product List | Glossary On
Versions: 1 2 3 4 5 6 7 8 9 10 11 12 13 14 15 16 17 18 19 20 21 22 23 24 25 26 27 28 29 30 31 32 33 34 35 36 37 38 39 40 41 42 43 44 45 46 47 48 49 50
000
ASUS42 KMHX 252310
RWRMHX
WEATHER ROUNDUP FOR EASTERN NORTH CAROLINA
NATIONAL WEATHER SERVICE NEWPORT/MOREHEAD CITY NC
600 PM EST SUN JAN 25 2015

NOTE: "FAIR" INDICATES FEW OR NO CLOUDS BELOW 12,000 FEET
WITH NO SIGNIFICANT WEATHER AND/OR OBSTRUCTIONS TO VISIBILITY

NCZ015>017-031-032-045>047-102-103-260000-
NORTH COAST

CITY           SKY/WX    TMP DP  RH WIND       PRES   REMARKS
EDENTON        CLEAR     46  36  66 S6        29.88R
ELIZABETH CITY CLEAR     43  37  79 SE7       29.89R
KITTY HAWK     CLEAR     43  31  63 S3        29.89S
MANTEO         CLEAR     43  32  65 S8        29.91R

$$

NCZ045>047-081-094-103-104-260000-
CENTRAL COAST

CITY           SKY/WX    TMP DP  RH WIND       PRES   REMARKS
FRISCO         CLEAR     44  36  73 S5        29.92R
SWANQUARTER    NOT AVBL

$$

NCZ095-097-098-100-101-260000-
SOUTHERN COAST

CITY           SKY/WX    TMP DP  RH WIND       PRES   REMARKS
BEAUFORT       CLEAR     47  36  65 S10       29.91S
CEDAR ISLAND   NOT AVBL
JACKSONVILLE   CLEAR     45  36  70 S8        29.89F
PINEY ISLAND     N/A    N/A N/A N/A MISG      29.91S
WILMINGTON     CLEAR     47  33  58 SE5       29.89F


$$

NCZ011>013-027>030-043-044-078>080-089-090>093-098-260000-
COASTAL PLAIN

CITY           SKY/WX    TMP DP  RH WIND       PRES   REMARKS
AHOSKIE        CLEAR     43  34  69 CALM      29.87S
CLINTON        CLEAR     50  37  62 S3        29.85S
ELIZABETHTOWN  CLEAR     51  35  54 S9        29.85F
GOLDSBORO      CLEAR     50  40  69 SE5       29.83F
GREENVILLE     CLEAR     50  32  50 SE3       29.88F
HAVELOCK       CLEAR     46  35  65 S6        29.92R
KENANSVILLE    CLEAR     48  34  58 CALM      29.86F
KINSTON        CLEAR     50  34  53 SE5       29.86F
NEW BERN       CLEAR     49  35  58 S8        29.90S
RICHLANDS      CLEAR     46  36  66 S6        29.89F
ROCKY MOUNT    CLEAR     45  35  68 CALM      29.85S
WASHINGTON     CLEAR     46  34  62 SE6       29.88F
WHITEVILLE     CLEAR     49  32  51 SE7       29.86F

$$

AMZ130-135-150-152-154-156-158-170-250-252-270-ANZ085-086-088-633-658-670-260000-
MARINE OBSERVATIONS

STATION/POSITION TIME  TEMP    WIND        PRES    WAVE   SWELL
                       AIR SEA DIR/SP/G            HT/PER HT/PER
                 (UTC) (F)     (DEG/KT/KT) (MB)    (FT/S) (FT/S)
CHESAPEAKE LIGHT 2200   45     170/ 17/ 18 1012.0
64 E VA BEACH    2300   47 52  180/  8/ 10 1012.3    4/10   3/10
DUCK             2300   45 44  150/ 14/ 15 1011.2
2 E DUCK         2300      44                N/A     3/10   2/11
10 NE DUCK       2300      45                N/A     3/11   2/11
OREGON INLET     2300   43 46  140/  6/  8 1012.4
13E OREGON INLT  2300      46                N/A     4/ 8   2/11
HATTERAS CG      2300   48 53  190/  3/  6 1013.2
DIAMOND BUOY     2300   52 69  210/  6/ 10 1013.0    4/ 9   3/ 9
17 S OCRACOKE    NOT AVBL
CAPE LOOKOUT     2200   49     190/  7/  9 1012.8
BEAUFORT LAB     2300   49 51  200/ 10/ 12 1011.8
27 SE WRIGHTSVLE NOT AVBL
5 SE WRIGHTSVLE  2200   51 52  180/ 10/ 12 1012.7
225 S CAPE HAT   2246   65 72  240/ 12/ 16 1013.9    6/ 8   5/ 8
41 SE CHARLESTON 2300   59 69  200/ 14/ 17 1011.6    2/ 5   2/ 8

$$



USA.gov is the U.S. government's official web portal to all federal, state and local government web resources and services.